Terug naar catalogus

ATLAS 5 CENTAUR DEB

LostHEO
NORAD 52044·DEBRIS·🇺🇸 United States

Gelanceerd Oct 17, 2018 vanaf Cape Canaveral Space Force Station

Loading…

Volgende Passages (komende 24 uur)

TLE

VerouderdSource: Space-Track

Epoch: Aug 3, 2026, 22:45 UTC

1 52044U 18079GN  26215.94823708 -.00000088  00000-0  00000-0 0  9994
2 52044  13.0008  35.7187 4296189 325.7497  12.7148  1.90889642 34788

Volg ATLAS 5 CENTAUR DEB in realtime met AllMySat

Download on the App Store